Regional Weather Roundup
Issued by NWS

Home | Current Version | Previous Version | Graphics & Text | Print | Product List | Glossary Off
Versions: 1 2 3 4 5 6 7 8 9 10 11 12 13 14 15 16 17 18 19 20 21 22 23 24 25 26 27 28 29 30 31 32 33 34 35 36 37 38 39 40 41 42 43 44 45 46 47 48 49 50

139
ASUS43 KMKX 260721
RWRWI

WISCONSIN REGIONAL WEATHER ROUNDUP
NATIONAL WEATHER SERVICE MILWAUKEE/SULLIVAN WI
200 AM CDT MON SEP 26 2016

NOTE: "FAIR" INDICATES FEW OR NO CLOUDS BELOW 12,000 FEET WITH NO
SIGNIFICANT WEATHER AND/OR OBSTRUCTIONS TO VISIBILITY.

WIZ001-002-006>008-014>016-023>028-260800-
NORTHWEST WISCONSIN

CITY           SKY/WX    TMP DP  RH WIND       PRES   REMARKS
SUPERIOR ARPT  CLOUDY    51  49  95 SW14      29.75F
ASHLAND        CLOUDY    53  47  79 SW14G25   29.74F
HAYWARD        CLOUDY    51  45  79 SW12G20   29.81F
SIREN          CLOUDY    51  45  78 W18G25    29.85F
CUMBERLAND     CLOUDY    50  41  71 W16G25    29.86F
RICE LAKE      CLOUDY    53  42  67 W10G21    29.88F
CHETEK         NOT AVBL
LADYSMITH      CLOUDY    52  44  75 W10G16    29.86F
EAU CLAIRE     CLEAR     53  43  68 W16G23    29.90F
MENOMONIE      CLEAR     54  44  69 W14G20    29.91F
NEW RICHMOND   CLOUDY    53  42  67 W16G28    29.92S
OSCEOLA        CLOUDY    55  44  67 W16G25    29.94S
$$

WIZ003>005-009-010-017-018-260800-
NORTH CENTRAL WISCONSIN

CITY           SKY/WX    TMP DP  RH WIND       PRES   REMARKS
MANITOWISH WTR NOT AVBL
ARBOR VITAE    CLOUDY    52  49  92 W12G18    29.78F
WOODRUFF       CLOUDY    52  49  92 W12G18    29.78F
RHINELANDER    CLOUDY    52  51  97 W10       29.80F
EAGLE RIVER    CLOUDY    51  49  93 W7        29.77F
LAND O LAKES   CLOUDY    52  48  86 W7        29.78S
PHILLIPS       CLOUDY    50  47  87 SW8G16    29.81F
TOMAHAWK       CLOUDY    51  45  81 W9        29.83S
MEDFORD        PTCLDY    49  46  92 W10G17    29.86S
MERRILL        MOCLDY    53  46  77 W14G22    29.85R
$$

WIZ029-030-035-036-043>047-260800-
CENTRAL WISCONSIN

CITY           SKY/WX    TMP DP  RH WIND       PRES   REMARKS
WAUSAU         CLOUDY    52  44  74 W20G25    29.84S
MOSINEE        PTCLDY    50  45  81 W14       29.88S
MARSHFIELD     CLEAR     52  42  69 W14G21    29.88F
STEVENS POINT  CLOUDY    53  46  76 W12G21    29.89S
WAUPACA        CLOUDY    58  50  75 W12G21    29.89S
WAUTOMA        CLOUDY    58  46  64 W12G23    29.91S
WISC RAPIDS    CLOUDY    54  46  74 W13G21    29.92S
CAMP DOUGLAS   PTCLDY    52  48  84 W9        29.93F
$$

WIZ011>013-019>022-031-037>040-048>050-260800-
NORTHEAST WISCONSIN

CITY           SKY/WX    TMP DP  RH WIND       PRES   REMARKS
ANTIGO         CLOUDY    53  48  84 CALM      29.83S
SHAWANO        CLOUDY    59  51  76 W8G18     29.84S
OCONTO         NOT AVBL
STURGEON BAY   CLOUDY    60  55  83 W9G16     29.81F
GREEN BAY      CLOUDY    59  55  87 W10       29.84S
MANITOWOC      CLOUDY    62  54  74 W13G18    29.86R
APPLETON       CLOUDY    55  46  71 W15G23    29.86S
CLINTONVILLE   NOT AVBL
OSHKOSH        CLOUDY    58  47  66 W12G18    29.89S
$$

WIZ032>034-041-042-053>061-260800-
SOUTHWEST WISCONSIN

CITY           SKY/WX    TMP DP  RH WIND       PRES   REMARKS
LA CROSSE      CLEAR     58  48  69 W14       29.96F
SPARTA         CLEAR     53  49  86 SW6       29.96S
VIROQUA        CLEAR     52  49  90 W7        29.97F
BOSCOBEL       CLOUDY    57  50  77 SW6       30.00S
PRAIRIE DU CHI CLOUDY    56  47  72 W10       30.01S
PLATTEVILLE    CLOUDY    57  53  86 W7        30.01F
$$

WIZ056-057-062-063-064-067-068-260800-
SOUTH CENTRAL WISCONSIN

CITY           SKY/WX    TMP DP  RH WIND       PRES   REMARKS
REEDSBURG      NOT AVBL
BARABOO/DELLS  CLOUDY    56  48  73 W7        29.95S
LONE ROCK      CLOUDY    58  50  75 W9        29.98S
MINERAL POINT  CLOUDY    57  52  82 W8        30.00S
MADISON        CLOUDY    59  49  69 VRB7      29.96R
MIDDLETON      CLOUDY    59  50  72 W10G17    29.97S
WATERTOWN      CLOUDY    58  52  80 W12G17    29.94S
MONROE         CLOUDY    57  50  77 W12G18    29.98F
JANESVILLE     CLOUDY    61  52  72 W13G18    29.96S
$$

WIZ051-052-058>065-066-070>072-260800-
SOUTHEAST WISCONSIN

CITY           SKY/WX    TMP DP  RH WIND       PRES   REMARKS
MILWAUKEE      CLOUDY    63  53  70 W15G24    29.92R
WAUKESHA       CLOUDY    57  50  77 W16       29.93S
MILWAUKEE/TIMM CLOUDY    59  50  72 W16       29.92R
RACINE         CLOUDY    62  53  72 W10G20    29.94R
BURLINGTON     CLOUDY    59  51  77 W9G20     29.94S
KENOSHA        CLOUDY    62  54  74 W12       29.94R
FOND DU LAC    CLOUDY    60  52  74 W14       29.91R
SHEBOYGAN      CLOUDY    60  52  74 W14G22    29.88R
WEST BEND      CLOUDY    59  52  77 W14       29.91S
JUNEAU         CLOUDY    58  51  76 W13       29.94R
$$

LSZ147-162-260800-
LAKE SUPERIOR

STATION/POSITION TIME  TEMP    WIND        PRES    WAVE
                       AIR SEA DIR/SP/G            HT/PER
                 (UTC) (F)     (DEG/KT/KT) (MB)    (FT/S)
W MID LAKE BUOY  0650   57 60  240/ 25/ 29 1003.4F   6/ 6
DEVILS ISLAND    0700   54     230/ 28/ 32 1005.0F
SAXON HARBOR     0500   58     220/  7/ 13 1008.1
$$

LMZ867-665-643>646-260800-
LAKE MICHIGAN

STATION/POSITION TIME  TEMP    WIND        PRES    WAVE
                       AIR SEA DIR/SP/G            HT/PER
                 (UTC) (F)     (DEG/KT/KT) (MB)    (FT/S)
CHAMBERS ISLAND  0600   62     220/  7/ 13 1008.8S
N MID LAKE BUOY  0650   65 67  240/ 21/ 25 1007.2S   4/ 6
NORTHPORT PIER   0600   62     260/  4/  8 1008.5R
KEWAUNEE LAKESHO 0600   62     260/  9/ 13 1009.8F
SHEBOYGAN LAKESH 0700   61     270/ 12/ 16 1011.1R
PORT WASHINGTON  0600   63     260/ 10/ 14 1012.5S
ATWATER BUOY     0700   61 53  260/ 17/ 21 1012.8R
MILWAUKEE LAKESH 0610   63     280/ 12/ 15   N/A
S MID LAKE BUOY  0650   65 72  260/ 19/ 23 1012.3R   4/ 5
KENOSHA   LAKESH 0700   63     270/ 12/ 17 1013.5R
$$

TC  - TEMPERATURE IN CELSIUS
VSB - VISIBILITY IN STATUTE MILES
WCI - WIND CHILL INDEX
HX  - HEAT INDEX





USA.gov is the U.S. government's official web portal to all federal, state and local government web resources and services.